Location: *
(45.5667°S, 177.5167°W)
Time: 22:58:51
(UTC+00:00)

SMAP - Pass Details

Date: 29 May 2022
Orbit: 681 x 683 km, 98.1° (Epoch: 24 June)

Event Time Altitude Azimuth Distance (km) Brightness Sun altitude
Exits shadow 05:06:14 - 141° (SE) 2,416 5.4 -8.4°
Reaches altitude 10° 05:07:06 10° 134° (SE) 2,161 5.1 -8.6°
Maximum altitude 05:10:29 19° 88° (E) 1,615 4.4 -9.1°
Drops below altitude 10° 05:13:50 10° 43° (NE) 2,140 5.4 -9.7°
Sets 05:16:39 0° 25° (NNE) 3,046 6.4 -10.1°
